www.pogodaiklimat.ru

Погода и климат >> Архив погоды >> Россия >> Якутия >> Батагай-Алыта


ПОГОДА в Батагай-Алыте

  • Прогноз погоды в Батагай-Алыте
  • Монитор погоды в Батагай-Алыте

АРХИВ ПОГОДЫ в Батагай-Алыте

Время (UTC), дата Ветер
(напр.,м/с)
 
Видим.   Явления Облачность Т
(С)
Тd
(С)
f
(%)
Тe
(С)
Тes
(С)
Комфортность P
(гПа)
Po
(гПа)
Тmin
(С)
Tmax
(С)
R
(мм)
R24
(мм)
S
(см)
06 17.02 штиль 0 н/о н/о -22.5 -25.0 80 -23 -23 1006.1 941.3
09 17.02 СЗ 3 н/о н/о -37.8 -40.8 73 -49 -49 опасность
обморожения
1011.2 942.0 -15.6
12 17.02 СЗ 2 н/о н/о -36.7 -39.5 75 -45 -45 опасность
обморожения
1011.0 942.1
15 17.02 СЗ 1 н/о н/о -33.6 -36.0 79 -38 -38 опасность
обморожения
1009.7 941.7
18 17.02 СЗ 2 н/о н/о -35.1 -37.5 79 -43 -43 опасность
обморожения
1010.2 941.8
21 17.02 СЗ 2 н/о н/о -38.4 -41.5 72 -47 -47 опасность
обморожения
1012.5 943.0 -38.6
00 18.02 СЗ 2 50 км ясно -36.7 -39.8 73 -45 -45 опасность
обморожения
1013.4 944.3 -39.5 0.0 14
03 18.02 штиль 0 50 км 4/0
[Ci fib]
-27.9 -31.6 71 -28 -27 1011.8 945.2
06 18.02 штиль 0 50 км 4/0
[Ci fib]
-27.2 -29.6 80 -27 -27 1012.0 945.6
09 18.02 СЗ 2 н/о н/о -35.8 -38.3 78 -44 -44 опасность
обморожения
1015.9 946.9 -16.8
12 18.02 СЗ 1 н/о н/о -39.3 -42.7 70 -44 -44 опасность
обморожения
1017.8 947.7
15 18.02 СЗ 2 н/о н/о -38.1 -41.3 72 -47 -47 опасность
обморожения
1017.8 948.0
18 18.02 СЗ 1 н/о н/о -38.9 -41.8 74 -44 -44 опасность
обморожения
1017.9 947.9
21 18.02 З 2 н/о н/о -40.5 -43.8 70 -50 -50 опасность
обморожения
1018.4 947.9 -40.5
00 19.02 С 1 50 км ясно -38.3 -41.3 73 -43 -43 опасность
обморожения
1018.0 948.2 -40.8 14
03 19.02 штиль 0 50 км ясно -28.8 -32.4 71 -29 -28 1015.1 948.0
06 19.02 ЮВ 2 50 км ясно -29.3 -32.0 77 -37 -36 опасность
обморожения
1015.3 948.1
09 19.02 СЗ 2 н/о н/о -39.1 -42.3 71 -48 -48 опасность
обморожения
1019.2 949.0 -27.4
12 19.02 СЗ 2 н/о н/о -37.7 -40.3 76 -46 -46 опасность
обморожения
1019.7 949.9
15 19.02 СЗ 1 н/о н/о -39.0 -42.1 72 -44 -44 опасность
обморожения
1021.2 951.0
18 19.02 СЗ 1 н/о н/о -40.2 -43.4 71 -45 -45 опасность
обморожения
1022.1 951.4
21 19.02 СЗ 2 н/о н/о -40.8 -44.2 70 -50 -50 опасность
обморожения
1023.3 952.3 -41.0
00 20.02 С 2 50 км ясно -38.0 -41.2 72 -47 -47 опасность
обморожения
1023.5 953.4 -41.3 14
03 20.02 В 1 50 км ясно -30.0 -33.6 71 -34 -33 опасность
обморожения
1021.4 953.6
06 20.02 В 1 50 км ясно -29.0 -31.8 77 -33 -33 опасность
обморожения
1021.5 954.0
09 20.02 СЗ 1 н/о н/о -39.2 -42.3 72 -44 -44 опасность
обморожения
1025.6 955.0 -26.9
12 20.02 СЗ 2 н/о н/о -39.0 -42.1 72 -48 -48 опасность
обморожения
1025.8 955.2
15 20.02 СЗ 2 н/о н/о -38.9 -42.0 72 -48 -48 опасность
обморожения
1025.8 955.2
18 20.02 СЗ 2 н/о н/о -38.0 -40.9 74 -47 -47 опасность
обморожения
1025.1 954.8
21 20.02 СЗ 2 н/о н/о -41.1 -44.4 70 -50 -50 опасность
обморожения
1025.9 954.7 -41.1
00 21.02 штиль 0 50 км ясно -40.2 -43.5 70 -40 -40 опасность
обморожения
1025.6 954.7 -41.4 14
03 21.02 ЮВ 1 50 км ясно -30.0 -33.6 71 -34 -33 опасность
обморожения
1021.4 953.6
06 21.02 ЮВ 1 50 км ясно -28.5 -31.1 78 -32 -32 опасность
обморожения
1020.5 953.2
09 21.02 СЗ 1 н/о н/о -38.9 -42.1 72 -44 -44 опасность
обморожения
1023.4 953.0 -27.7
12 21.02 СЗ 2 н/о н/о -39.8 -42.9 72 -49 -49 опасность
обморожения
1023.0 952.4
15 21.02 СЗ 2 н/о н/о -39.7 -42.9 71 -49 -49 опасность
обморожения
1022.1 951.5
18 21.02 СЗ 3 н/о н/о -37.6 -40.5 74 -49 -49 опасность
обморожения
1020.9 951.0
21 21.02 З 1 н/о н/о -34.8 -37.5 76 -39 -39 опасность
обморожения
1019.0 950.1 -40.1
00 22.02 СЗ 1 50 км 4/3 1500 м
[Sc Ci fib]
-35.7 -38.5 75 -40 -40 опасность
обморожения
1018.7 949.5 -40.1 14
03 22.02 СЗ 1 50 км 8/3 1500 м
[Sc Ci fib]
-27.0 -29.4 80 -31 -30 опасность
обморожения
1014.9 948.3
06 22.02 З 3 50 км 8/4 1500 м
[Sc Ac trans]
-19.6 -21.0 89 -27 -27 1012.4 947.9
09 22.02 СЗ 1 н/о н/о -27.1 -29.2 82 -31 -31 опасность
обморожения
1015.7 949.1 -16.1
12 22.02 З 2 н/о н/о -31.8 -34.1 80 -40 -40 опасность
обморожения
1018.7 950.6
15 22.02 СЗ 3 н/о н/о -32.3 -34.4 81 -42 -42 опасность
обморожения
1019.7 951.4
18 22.02 СЗ 1 н/о н/о -34.7 -37.1 79 -39 -39 опасность
обморожения
1021.2 952.1
21 22.02 СЗ 2 н/о н/о -40.2 -43.3 72 -49 -49 опасность
обморожения
1023.2 952.4 -40.3
00 23.02 СЗ 2 н/о н/о -41.3 -44.6 70 -51 -51 опасность
обморожения
1023.5 952.4 -41.4
03 23.02 З 1 н/о н/о -29.0 -31.1 82 -33 -33 опасность
обморожения
1018.7 951.4
06 23.02 В 1 н/о н/о -26.2 -29.2 76 -30 -30 1016.7 950.2
09 23.02 СЗ 2 н/о н/о -38.6 -41.8 72 -48 -48 опасность
обморожения
1020.0 950.0 -25.5
12 23.02 З 1 н/о н/о -36.2 -38.8 77 -41 -41 опасность
обморожения
1018.9 949.6
15 23.02 СЗ 1 н/о н/о -33.6 -36.1 78 -38 -38 опасность
обморожения
1016.8 948.3
18 23.02 штиль 0 н/о н/о -29.8 -32.1 80 -30 -30 1014.6 947.3
21 23.02 штиль 0 н/о н/о -28.8 -31.1 80 -29 -29 1013.5 946.6 -39.7
00 24.02 штиль 0 н/о н/о -29.2 -31.5 80 -29 -29 1012.8 945.8
03 24.02 ЮВ 1 н/о н/о -29.0 -31.6 78 -33 -33 опасность
обморожения
1011.9 945.0

 

Местоположение метеостанции Батагай-Алыта (Якутия, Россия): широта 67.78 долгота 130.40 высота над уровнем моря 491 м.

В архиве по умолчанию представлена погода в Батагай-Алыте за последнюю неделю. Архивные данные за месяц целиком и за предыдущие месяцы, начиная с января 2011 года, Вы можете получить, выбрав интересующий диапазон дат из раскрывающегося списка и нажав кнопку "Ввод!".


*Определитесь, кто Вы:
робот инопланетянин человек

Внимание! Время в таблицах - всемирное. Для получения местного времени необходимо прибавить поправку, которая равна 9 ч.

Смотрите также архив погоды в соседних городах и на ближайших метеорологических станциях:

Погода в Екюччю (Якутия, Россия) (124 км)
Погода в Верхоянске (Якутия, Россия) (129 км)
Погода в Батагае (Якутия, Россия) (178 км)
Погода в Себян-Кюеле (Якутия, Россия) (276 км)
Погода в Джарджане (Якутия, Россия) (284 км)
Погода в Усть-Чарках (Якутия, Россия) (288 км)
Погода в Усть-Куйге (Якутия, Россия) (323 км)
Погода в Жиганске (Якутия, Россия) (324 км)
Погода в Кюсюре (Якутия, Россия) (343 км)
Погода в Иэме (Якутия, Россия) (365 км)

Пояснения к столбцам:

Ветер - указаны скорость ветра в м/с - средняя за 10 мин, порывы в срок и между сроками (в фигурных скобках) и направление, откуда дует ветер: С - северный, СВ - северо-восточный, В - восточный, ЮВ - юго-восточный, Ю - южный, ЮЗ - юго-западный, З - западный, СЗ - северо-западный.
Видимость - горизонтальная дальность видимости в метрах или километрах. При видимости от 1 до 10 км при отсутствии осадков обычно наблюдается дымка, при ухудшении видимости до 1 км и менее - туман. В сухую погоду видимость может ухудшаться дымом, пылью или мглою.
Явления - указаны атмосферные явления, наблюдавшиеся в срок или в последний час перед сроком; фигурными скобками обозначены явления, наблюдавшиеся между сроками (за 1-3 часа до срока); квадратными скобками обозначены град или гололедные отложения с указанием их диаметра в мм.
Облачность - указаны через наклонную черту общая и нижняя облачность в баллах и высота нижней границы облаков в метрах; квадратными скобками обозначены формы облаков: Ci - перистые, Cs - перисто-слоистые, Cc - перисто-кучевые, Ac - высококучевые, As - высокослоистые, Sc - слоисто-кучевые, Ns - слоисто-дождевые, Cu - кучевые, Cb - кучево-дождевые. Подробнее классификацию облаков см. в Атласе облаков (PDF).
T - Температура воздуха - температура, измеренная на высоте 2 м над землей.
Td - Температура точки росы - температура, при понижении до которой содержащийся в воздухе водяной пар достигнет насыщения.
f - Относительная влажность воздуха - влажноcть воздуха, измеренная на высоте 2 м над землей.
Te - Эффективная температура - температура, которую ощущает одетый по сезону человек в тени. Характеристика душности погоды. При расчете учитывается влияние влажности воздуха и скорости ветра на теплоощущения человека.
Tes - Эффективная температура на солнце - температура, которую ощущает человек, с поправкой на солнечный нагрев. Характеристика знойности погоды. Зависит от высоты солнца над горизонтом, облачности и скорости ветра. Ночью, в пасмурную погоду, а также при ветре 12 м/с и более поправка равна нулю.
P - Атмосферное давление - приведенное к уровню моря атмосферное давление.
Po - Атмосферное давление - измеренное на уровне метеостанции атмосферное давление.
Tmin - Минимальная температура - минимум температуры воздуха на высоте 2 м над землей.
Tmax - Максимальная температура - максимум температуры воздуха на высоте 2 м над землей.
R - Количество осадков - Количество выпавших осадков за период времени, мм. При наведении курсора мыши на число - период времени, за который выпало указанное количество осадков.
R24 - Количество осадков - Количество выпавших осадков за 24 часа, мм.
S - Снежный покров - Высота снежного покрова, см. При наведении курсора мыши на число - состояние снежного покрова и степень покрытия местности в баллах.